Overview Statistics Trail Chart Weather Telemetry Raw packets
 

This is the latest recevied weather packets stored in our database for station/object N5JXS. If no packets are shown the sender has not sent any weather packets the latest 10 day(s).

<< 27 28 29 30 31 32 33 >>
Time Temp. Humidity Pressure Rain* Wind** Luminosity Snow
1788439904 15.56° C 45% 1024.4 hPa 0 mm - 6 W/m² -
1788439603 15.56° C 44% 1024.5 hPa 0 mm - 5 W/m² -
1788439297 15.56° C 45% 1024.1 hPa 0 mm - 3 W/m² -
1788438992 15.56° C 43% 1024.2 hPa 0 mm - 2 W/m² -
1788438691 15° C 43% 1024.1 hPa 0 mm - 0 W/m² -
1788438391 15.56° C 44% 1024.2 hPa 0 mm - 0 W/m² -
1788438091 15.56° C 43% 1024.1 hPa 0 mm - 0 W/m² -
1788437790 16.11° C 42% 1023.9 hPa 0 mm - 0 W/m² -
1788437486 16.67° C 41% 1024 hPa 0 mm - 0 W/m² -
1788437185 16.67° C 41% 1023.7 hPa 0 mm - 0 W/m² -
1788436879 16.11° C 42% 1023.9 hPa 0 mm - 0 W/m² -
1788436577 15.56° C 42% 1023.7 hPa 0 mm - 0 W/m² -
1788436273 16.11° C 41% 1023.9 hPa 0 mm - 0 W/m² -
1788435968 16.67° C 41% 1023.4 hPa 0 mm - 0 W/m² -
1788435664 17.22° C 40% 1023.6 hPa 0 mm - 0 W/m² -
1788435359 17.78° C 38% 1023.7 hPa 0 mm - 0 W/m² -
1788435055 17.78° C 38% 1023.9 hPa 0 mm - 0 W/m² -
1788434751 16.11° C 41% 1023.6 hPa 0 mm - 0 W/m² -
1788434450 15° C 44% 1024 hPa 0 mm - 0 W/m² -
1788434150 15° C 46% 1023.7 hPa 0 mm - 0 W/m² -
1788433846 15° C 44% 1023.9 hPa 0 mm - 0 W/m² -
1788433542 15° C 44% 1023.5 hPa 0 mm - 0 W/m² -
1788433254 15° C 44% 1023.5 hPa 0 mm - 0 W/m² -
1788432931 15.56° C 42% 1023.9 hPa 0 mm - 0 W/m² -
1788432626 15.56° C 42% 1023.6 hPa 0 mm - 0 W/m² -

* Rain latest hour (hover to see other rain measurements)
** Current wind speed in m/s (hover to see current wind gust speed)